TimeEDT,TemperatureF,Dew PointF,Humidity,Sea Level PressureIn,VisibilityMPH,Wind Direction,Wind SpeedMPH,Gust SpeedMPH,PrecipitationIn,Events,Conditions,WindDirDegrees,DateUTC
12:53 AM,68.0,66.0,93,29.60,6.0,SSW,5.8,-,0.01,,Overcast,210,2013-09-13 04:53:00
1:53 AM,66.9,66.0,97,29.59,6.0,South,5.8,-,0.00,Rain,Light Rain,190,2013-09-13 05:53:00
2:03 AM,66.2,66.2,100,29.60,6.0,South,5.8,-,0.00,Rain,Light Rain,180,2013-09-13 06:03:00
2:16 AM,66.2,66.2,100,29.59,6.0,South,6.9,-,0.00,,Overcast,190,2013-09-13 06:16:00
2:53 AM,66.9,64.9,93,29.58,6.0,South,6.9,-,0.00,Rain,Light Rain,190,2013-09-13 06:53:00
3:01 AM,66.2,64.4,94,29.58,7.0,SSW,8.1,-,0.00,Rain,Light Rain,200,2013-09-13 07:01:00
3:10 AM,66.2,64.4,94,29.58,6.0,Variable,6.9,-,0.01,Rain,Light Rain,0,2013-09-13 07:10:00
3:50 AM,66.2,64.4,94,29.58,6.0,SSW,5.8,-,0.04,Rain,Light Rain,200,2013-09-13 07:50:00
3:51 AM,66.0,64.0,93,29.57,6.0,SSW,5.8,-,0.04,Rain,Light Rain,200,2013-09-13 07:51:00
4:36 AM,64.4,64.4,100,29.57,6.0,South,4.6,-,0.04,Rain,Light Rain,190,2013-09-13 08:36:00
4:53 AM,64.9,64.0,97,29.58,8.0,SSW,4.6,-,0.05,Rain,Light Rain,210,2013-09-13 08:53:00
5:12 AM,64.4,64.4,100,29.59,6.0,SSW,4.6,-,0.00,Rain,Light Rain,200,2013-09-13 09:12:00
5:31 AM,64.4,64.4,100,29.59,5.0,South,4.6,-,0.02,Rain,Light Rain,190,2013-09-13 09:31:00
5:39 AM,64.4,64.4,100,29.59,5.0,South,3.5,-,0.03,Rain,Light Rain,190,2013-09-13 09:39:00
5:53 AM,64.9,64.0,97,29.59,6.0,SSW,3.5,-,0.04,Rain,Light Rain,200,2013-09-13 09:53:00
6:53 AM,64.9,63.0,93,29.60,7.0,Calm,Calm,-,0.01,,Overcast,0,2013-09-13 10:53:00
7:15 AM,64.4,62.6,94,29.61,7.0,SSW,3.5,-,N/A,,Overcast,200,2013-09-13 11:15:00
7:48 AM,64.4,64.4,100,29.62,8.0,SSW,4.6,-,N/A,,Overcast,210,2013-09-13 11:48:00
7:53 AM,64.9,64.0,97,29.62,8.0,SSW,4.6,-,N/A,,Overcast,210,2013-09-13 11:53:00
8:45 AM,66.2,64.4,94,29.63,9.0,SSW,3.5,-,N/A,,Overcast,210,2013-09-13 12:45:00
8:53 AM,66.0,64.0,93,29.63,10.0,SSW,3.5,-,N/A,,Overcast,210,2013-09-13 12:53:00
9:53 AM,66.0,64.0,93,29.64,10.0,Calm,Calm,-,0.00,,Overcast,0,2013-09-13 13:53:00
10:53 AM,68.0,64.0,87,29.63,10.0,Calm,Calm,-,N/A,,Scattered Clouds,0,2013-09-13 14:53:00
11:53 AM,68.0,63.0,84,29.63,8.0,Calm,Calm,-,0.01,Rain,Light Rain,0,2013-09-13 15:53:00
12:48 PM,66.2,62.6,88,29.64,6.0,North,6.9,-,0.01,Rain,Light Rain,10,2013-09-13 16:48:00
12:53 PM,66.0,62.1,87,29.64,6.0,North,5.8,-,0.02,Rain,Light Rain,10,2013-09-13 16:53:00
1:11 PM,66.2,64.4,94,29.63,8.0,NNE,4.6,-,0.01,Rain,Light Rain,30,2013-09-13 17:11:00
1:53 PM,66.9,64.0,90,29.61,8.0,North,13.8,18.4,0.01,Rain,Light Rain,10,2013-09-13 17:53:00
2:05 PM,64.4,62.6,94,29.61,8.0,NNE,13.8,-,0.01,Rain,Light Rain,20,2013-09-13 18:05:00
2:23 PM,64.4,62.6,94,29.62,10.0,North,8.1,-,0.01,,Overcast,10,2013-09-13 18:23:00
2:40 PM,64.4,60.8,88,29.62,10.0,North,13.8,-,0.01,,Overcast,360,2013-09-13 18:40:00
2:53 PM,63.0,60.1,90,29.63,10.0,North,9.2,-,0.01,,Overcast,360,2013-09-13 18:53:00
3:23 PM,62.6,60.8,94,29.63,10.0,North,8.1,-,N/A,,Overcast,360,2013-09-13 19:23:00
3:44 PM,62.6,57.2,82,29.63,10.0,North,11.5,-,N/A,,Overcast,10,2013-09-13 19:44:00
3:53 PM,62.1,57.9,86,29.63,10.0,North,10.4,-,N/A,,Overcast,360,2013-09-13 19:53:00
4:05 PM,60.8,57.2,88,29.63,10.0,North,10.4,-,N/A,,Overcast,10,2013-09-13 20:05:00
4:12 PM,60.8,57.2,88,29.63,10.0,North,10.4,-,N/A,,Overcast,360,2013-09-13 20:12:00
4:50 PM,60.8,57.2,88,29.64,9.0,North,9.2,-,N/A,,Overcast,350,2013-09-13 20:50:00
4:53 PM,61.0,57.9,90,29.65,8.0,North,6.9,-,N/A,,Overcast,350,2013-09-13 20:53:00
5:38 PM,60.8,57.2,88,29.64,3.0,North,5.8,-,0.00,Rain,Light Rain,360,2013-09-13 21:38:00
5:53 PM,60.1,59.0,96,29.64,4.0,North,4.6,-,0.00,Rain,Light Rain,360,2013-09-13 21:53:00
6:12 PM,60.8,59.0,94,29.63,3.0,North,6.9,-,0.01,Rain,Light Rain,10,2013-09-13 22:12:00
6:53 PM,60.1,57.9,93,29.64,6.0,North,9.2,-,0.02,Rain,Light Rain,360,2013-09-13 22:53:00
7:53 PM,59.0,57.0,93,29.65,4.0,North,12.7,19.6,0.03,Rain,Rain,10,2013-09-13 23:53:00
8:04 PM,57.2,57.2,100,29.64,4.0,North,12.7,-,0.01,Rain,Light Rain,10,2013-09-14 00:04:00
8:15 PM,57.2,57.2,100,29.64,2.5,North,9.2,-,0.02,Rain,Heavy Rain,10,2013-09-14 00:15:00
8:24 PM,57.2,57.2,100,29.65,4.0,North,11.5,-,0.03,Rain,Rain,10,2013-09-14 00:24:00
8:32 PM,57.2,57.2,100,29.64,6.0,NNE,12.7,-,0.04,Rain,Light Rain,20,2013-09-14 00:32:00
8:53 PM,57.9,55.9,93,29.64,5.0,North,12.7,-,0.06,Rain,Light Rain,360,2013-09-14 00:53:00
9:53 PM,57.0,55.9,96,29.65,6.0,NNW,6.9,16.1,0.05,Rain,Light Rain,340,2013-09-14 01:53:00
10:37 PM,55.4,55.4,100,29.65,2.0,North,10.4,-,0.04,Rain,Rain,350,2013-09-14 02:37:00
10:53 PM,55.9,55.0,97,29.66,3.0,NNW,9.2,-,0.05,Rain,Rain,340,2013-09-14 02:53:00
11:08 PM,55.4,55.4,100,29.66,2.5,NNW,10.4,17.3,0.01,Rain,Rain,330,2013-09-14 03:08:00
11:18 PM,55.4,55.4,100,29.67,3.0,NW,6.9,17.3,0.02,Rain,Light Rain,310,2013-09-14 03:18:00
11:28 PM,55.4,55.4,100,29.68,1.8,NW,6.9,-,0.03,Rain,Heavy Rain,320,2013-09-14 03:28:00
11:38 PM,55.4,55.4,100,29.67,3.0,North,10.4,18.4,0.04,Rain,Rain,350,2013-09-14 03:38:00
11:53 PM,55.9,55.0,97,29.68,3.0,NW,8.1,-,0.05,Rain,Rain,320,2013-09-14 03:53:00